Wind_Speed
44 46 49 48 45 46 46 49 50 54 56 58 60 61 63 69 68 72 75 79 82 84 90 96 95 99 105 114 116 125 130 134 103 87 70 57 49 43 37 42 44 47 61 59 63
48 48 50 48 48 45 45 48 50 54 57 58 58 61 65 68 71 76 78 81 85 90 95 96 101 108 113 117 123 131 130 130 104 88 69 53 40 35 33 41 45 51 61 59 63
51 52 50 50 47 47 48 48 51 53 54 55 58 61 66 69 75 78 82 84 89 94 98 103 107 112 117 119 128 135 139 133 98 80 64 49 33 27 37 42 44 51 57 63 68
53 51 51 48 45 46 47 49 51 53 54 60 63 66 70 73 77 79 82 86 94 100 105 107 112 116 122 127 132 137 143 124 90 74 52 40 24 22 32 43 48 51 57 68 74
48 50 47 44 46 47 47 50 52 53 58 62 66 69 73 74 75 80 86 93 100 103 108 112 116 120 124 130 134 140 141 111 88 65 45 33 16 22 33 42 46 51 56 69 76
47 47 42 44 46 50 50 54 56 58 61 65 69 71 74 78 79 82 87 95 101 106 110 115 120 122 127 132 138 142 144 95 75 54 38 24 15 27 34 44 45 53 60 73 80
45 44 45 44 47 53 53 56 61 62 64 68 73 74 75 78 83 84 90 97 104 107 114 120 125 128 133 138 139 142 134 87 66 47 32 17 16 27 33 43 47 58 66 76 88
44 45 46 49 50 52 57 58 61 64 68 72 74 76 76 78 83 89 92 99 105 111 118 123 129 132 136 142 147 152 134 89 60 42 28 14 17 26 37 42 47 56 71 79 88
48 48 50 53 53 55 59 59 61 64 69 71 76 76 79 80 83 89 94 103 109 114 122 126 132 136 137 143 149 155 144 87 57 40 23 10 16 29 40 44 49 57 67 76 85
52 52 54 55 55 57 60 62 64 66 67 72 76 80 82 85 89 93 97 104 111 116 124 129 134 138 141 145 144 153 126 83 54 36 18 10 18 31 44 49 53 58 63 70 83
56 58 58 57 56 61 63 65 66 69 67 71 75 78 81 85 89 95 101 106 113 119 126 131 135 139 142 145 148 159 127 80 54 35 16 8 18 32 47 54 59 67 73 80 88
59 60 60 59 60 63 65 67 69 69 69 72 76 78 78 85 93 99 103 108 114 121 128 132 138 143 144 149 154 150 115 81 51 33 15 8 17 31 50 56 62 70 76 83 93
60 60 61 63 57 64 67 68 68 69 69 73 76 78 82 88 93 95 104 109 115 122 128 135 140 145 145 151 154 146 111 81 52 31 14 9 19 32 50 59 62 67 78 85 95
62 64 67 65 65 65 67 68 69 71 75 77 77 80 83 89 92 98 104 109 115 122 129 134 140 144 149 151 145 130 98 78 54 31 15 9 20 34 50 61 65 70 75 86 94
64 63 67 68 70 69 67 66 70 74 73 77 80 82 86 91 96 98 103 110 114 120 126 133 140 143 147 149 145 112 90 77 53 29 13 8 19 35 49 62 68 74 78 86 96
63 65 71 68 72 71 70 71 73 72 73 77 79 84 87 91 96 101 104 109 112 118 124 132 142 146 145 141 132 104 80 70 52 29 13 6 19 36 47 57 69 70 75 91 103
64 73 72 73 70 71 71 71 73 78 77 78 81 85 90 94 96 99 101 105 107 115 121 132 139 145 144 145 129 103 73 65 51 30 13 5 18 36 49 55 66 74 76 87 102
65 71 74 75 74 74 72 75 76 80 82 82 84 89 92 92 94 97 102 106 109 116 122 130 136 140 139 138 123 102 72 63 51 30 13 4 16 31 46 59 65 73 79 87 105
72 79 80 73 74 74 73 74 75 84 89 82 85 86 89 90 93 99 104 105 109 114 122 128 136 139 133 132 113 98 75 61 51 26 13 6 14 26 40 54 64 72 78 86 101
75 76 77 73 75 73 75 74 77 77 82 83 86 87 88 91 93 100 102 102 109 111 119 124 132 135 134 136 115 97 73 58 46 28 12 7 14 25 35 47 62 75 83 88 98
75 79 77 75 77 75 77 79 78 77 80 86 85 87 91 92 96 100 101 101 108 108 115 121 127 129 127 128 116 92 79 56 43 28 13 8 15 24 35 45 61 70 77 85 95
78 80 77 76 75 76 79 83 78 77 81 85 83 88 87 93 95 97 90 101 102 106 111 118 123 126 128 128 114 89 74 57 40 27 14 9 15 24 33 44 54 68 75 82 94
76 77 75 72 77 80 82 82 82 88 89 89 88 84 86 91 92 91 97 96 99 103 109 117 121 121 128 126 112 88 71 61 37 26 15 9 15 23 33 40 50 62 79 84 94
77 75 76 78 83 88 83 78 90 90 82 80 82 84 84 88 90 92 94 97 94 103 108 116 120 122 126 123 110 95 75 58 33 27 15 9 15 22 31 41 49 57 69 86 96
81 85 85 92 88 84 86 89 89 80 77 75 80 76 82 84 87 93 91 92 96 104 108 114 119 122 127 121 111 96 74 54 31 25 16 10 15 21 30 37 47 58 67 78 96
89 95 98 94 88 88 88 94 84 77 74 81 74 75 79 82 89 86 91 92 96 103 108 109 115 121 124 119 107 95 67 62 35 25 15 12 15 19 27 33 41 50 63 74 89
96 96 96 93 91 85 90 85 74 75 78 75 75 77 78 81 84 86 89 93 97 102 107 106 110 121 119 116 101 88 75 47 34 24 15 12 16 18 23 31 38 46 56 69 83
Wind_Direction
308 307 314 317 319 319 320 318 318 315 318 317 316 318 321 324 327 329 331 331 330 330 332 332 333 337 338 339 336 336 334 336 330 326 316 297 282 275 253 235 221 212 210 208 199
305 307 311 313 314 314 313 315 314 314 318 318 320 320 322 325 328 330 330 329 328 330 331 331 335 337 337 337 338 335 339 340 328 325 321 302 283 267 233 225 218 210 207 199 196
299 304 307 310 310 308 309 314 313 317 319 320 320 321 323 326 328 330 329 328 328 328 329 334 334 334 334 336 338 337 336 338 326 325 315 308 290 255 227 218 215 209 205 193 193
298 301 305 309 310 307 310 311 313 316 319 318 319 323 325 326 327 326 327 326 327 329 332 330 332 333 336 336 338 337 339 339 326 325 316 304 286 246 223 212 209 204 201 195 188
300 300 304 309 309 308 310 313 313 315 315 317 320 323 324 326 328 326 326 326 328 330 330 331 332 332 335 337 337 338 339 336 332 325 315 302 261 220 216 212 204 199 198 193 183
297 300 307 309 308 307 311 309 312 315 318 319 321 324 325 326 327 326 326 327 328 327 329 330 332 333 336 336 338 339 343 338 335 323 314 298 237 203 209 205 199 195 191 189 186
296 302 304 307 303 309 309 310 314 316 318 319 322 322 325 326 326 326 328 328 327 328 329 330 331 333 335 336 337 341 348 340 337 325 314 292 227 197 203 203 197 190 187 186 183
298 300 303 304 306 310 311 313 316 316 316 318 320 322 323 324 325 327 327 328 329 329 328 331 330 333 336 335 338 340 347 341 337 330 316 285 216 193 198 196 195 192 186 189 186
293 297 298 303 308 309 308 310 313 313 314 317 318 320 322 324 324 326 328 329 328 329 329 330 331 333 334 337 337 340 346 343 339 332 318 274 207 190 195 191 189 191 192 187 182
293 296 296 298 304 306 308 310 311 311 313 314 316 318 320 323 324 325 327 327 329 330 329 330 332 332 334 335 337 342 345 344 345 337 315 267 200 187 189 188 185 186 188 185 181
295 295 294 296 299 302 305 308 308 309 311 312 315 316 318 321 324 326 327 329 330 330 329 330 330 330 332 335 338 343 344 345 347 343 317 246 203 187 187 187 183 183 185 182 179
295 299 292 291 296 300 304 306 307 307 309 311 313 316 319 322 325 326 327 329 329 329 329 330 331 331 333 335 340 345 342 345 349 345 323 255 202 195 186 189 184 184 181 178 177
292 292 289 291 293 299 303 304 305 304 309 310 312 315 317 320 324 324 325 326 327 328 329 330 331 332 333 336 340 341 339 344 348 350 327 261 198 194 187 190 186 184 180 180 178
281 286 287 290 292 295 299 301 305 305 307 309 311 313 316 320 322 324 324 326 328 330 330 331 331 332 333 337 341 344 341 343 348 352 332 261 205 190 188 191 186 184 181 182 175
279 285 286 289 289 293 296 300 307 306 306 309 312 313 315 320 322 322 324 325 329 330 331 331 331 332 334 336 341 348 344 343 347 353 337 263 211 189 189 193 190 185 182 182 177
278 280 284 286 289 291 295 298 302 303 306 309 311 313 315 318 319 322 324 327 330 329 331 331 331 332 333 339 344 349 348 342 347 350 337 262 211 192 189 190 194 187 183 181 177
275 277 281 285 289 290 293 300 302 304 305 308 309 312 313 316 320 322 325 328 328 330 331 330 331 332 334 337 345 348 348 343 345 350 338 263 208 198 189 187 194 188 184 183 179
266 272 279 283 289 290 292 295 298 305 303 305 309 312 312 315 319 321 326 327 328 329 330 330 331 332 335 338 345 347 348 344 345 352 336 264 214 201 195 188 188 192 184 183 180
268 272 277 282 289 288 289 293 299 302 304 301 307 310 312 315 318 320 324 325 327 330 329 330 330 332 334 336 345 347 352 348 345 350 333 257 213 204 200 192 186 185 192 183 186
267 271 275 281 286 286 287 291 300 306 301 303 307 309 312 312 316 321 323 325 326 330 329 331 331 332 333 337 345 348 347 350 347 345 332 250 218 204 199 198 187 187 189 186 187
265 270 273 279 282 285 288 290 297 303 301 306 305 308 310 311 316 320 323 324 327 329 331 332 332 331 333 336 342 346 347 350 344 344 329 250 219 211 196 198 197 191 187 187 187
266 266 270 276 279 285 289 289 293 299 300 304 307 308 310 312 317 319 322 326 329 330 331 331 332 330 333 336 341 346 347 351 344 345 326 264 222 209 204 195 202 192 186 189 188
261 265 269 276 282 282 284 285 288 298 297 300 304 306 310 313 316 319 318 325 328 330 332 330 330 331 334 337 342 346 346 346 343 341 326 262 225 213 202 202 196 199 189 185 189
259 263 268 275 282 282 284 285 294 297 297 301 303 306 310 311 315 317 322 324 328 329 329 328 328 329 333 336 342 344 344 343 338 336 325 265 229 214 207 200 198 199 196 188 185
257 263 265 272 278 278 280 286 290 292 299 300 304 306 309 312 315 317 322 326 328 328 328 328 328 330 331 335 339 344 346 345 337 332 322 272 237 215 207 202 199 196 198 193 185
254 263 266 273 275 278 280 286 287 293 294 298 301 305 308 312 314 319 322 325 327 327 326 327 328 329 329 335 338 341 342 349 334 328 314 272 238 220 212 204 202 200 196 195 192
254 261 265 270 272 276 278 283 286 290 294 295 300 304 306 311 314 319 322 325 325 325 326 326 326 328 328 333 336 338 340 335 338 323 306 271 238 223 215 208 202 201 200 197 194
Height
10861 10857 10855 10852 10849 10845 10840 10834 10830 10824 10818 10812 10805 10798 10792 10785 10778 10770 10762 10751 10740 10730 10719 10707 10698 10686 10672 10655 10637 10615 10597 10573 10542 10528 10508 10496 10487 10486 10486 10487 10497 10510 10516 10536 10553
10855 10851 10849 10845 10842 10838 10833 10829 10823 10816 10810 10804 10798 10791 10784 10776 10768 10758 10749 10737 10727 10717 10707 10697 10679 10667 10653 10640 10621 10595 10577 10555 10511 10493 10486 10478 10471 10469 10473 10476 10484 10494 10507 10526 10542
10849 10845 10842 10839 10835 10831 10826 10821 10814 10810 10804 10797 10790 10784 10776 10768 10757 10745 10737 10725 10714 10705 10693 10675 10668 10658 10645 10628 10604 10573 10549 10533 10493 10476 10461 10458 10455 10459 10461 10465 10473 10486 10502 10515 10529
10841 10838 10835 10832 10828 10823 10819 10813 10807 10802 10797 10790 10783 10776 10767 10760 10751 10737 10729 10716 10703 10689 10673 10665 10656 10642 10628 10606 10583 10561 10527 10500 10480 10460 10450 10446 10443 10449 10453 10454 10460 10477 10491 10503 10518
10833 10830 10827 10824 10820 10816 10811 10805 10800 10795 10789 10783 10775 10767 10758 10750 10742 10728 10714 10701 10688 10674 10665 10652 10640 10624 10611 10592 10572 10545 10521 10480 10458 10446 10439 10436 10435 10440 10440 10448 10457 10467 10484 10497 10514
10825 10822 10819 10816 10812 10808 10803 10798 10793 10787 10782 10775 10767 10760 10749 10737 10731 10720 10706 10692 10679 10667 10652 10641 10627 10611 10597 10577 10555 10526 10506 10467 10450 10437 10428 10427 10427 10431 10429 10439 10452 10462 10473 10489 10508
10819 10815 10812 10810 10804 10801 10797 10790 10785 10779 10773 10766 10758 10751 10743 10730 10716 10712 10700 10684 10670 10654 10638 10625 10607 10593 10575 10554 10540 10519 10488 10459 10440 10429 10422 10420 10421 10424 10426 10434 10446 10456 10466 10485 10497
10811 10809 10805 10802 10799 10795 10788 10783 10777 10772 10765 10758 10749 10741 10734 10725 10713 10697 10688 10676 10657 10642 10623 10610 10588 10577 10562 10535 10511 10489 10477 10450 10433 10420 10415 10413 10416 10420 10422 10431 10446 10458 10466 10476 10493
10803 10802 10798 10794 10792 10787 10781 10776 10771 10765 10757 10750 10740 10732 10724 10716 10707 10695 10680 10664 10649 10633 10613 10596 10577 10562 10554 10530 10500 10480 10458 10444 10423 10412 10409 10407 10411 10415 10417 10428 10441 10454 10468 10479 10500
10795 10794 10790 10786 10784 10779 10774 10769 10764 10757 10750 10742 10733 10724 10712 10705 10694 10684 10673 10658 10638 10622 10602 10584 10569 10552 10535 10527 10511 10477 10449 10433 10418 10409 10406 10402 10407 10412 10414 10423 10436 10452 10466 10484 10504
10787 10785 10781 10777 10775 10770 10766 10763 10757 10749 10743 10734 10726 10715 10707 10697 10686 10672 10658 10644 10627 10611 10589 10577 10560 10542 10529 10512 10490 10465 10440 10425 10414 10404 10402 10400 10404 10409 10412 10418 10429 10443 10453 10472 10499
10777 10775 10770 10768 10765 10761 10757 10755 10749 10743 10736 10727 10718 10708 10698 10686 10674 10660 10647 10636 10622 10604 10583 10566 10547 10532 10510 10493 10481 10459 10433 10420 10411 10401 10397 10398 10401 10408 10411 10418 10425 10439 10457 10472 10495
10767 10765 10759 10758 10756 10752 10749 10744 10740 10733 10727 10717 10710 10701 10692 10681 10670 10658 10644 10631 10614 10595 10578 10557 10537 10515 10504 10487 10474 10454 10426 10413 10404 10397 10395 10395 10399 10405 10411 10414 10428 10438 10457 10472 10490
10757 10754 10747 10748 10747 10743 10740 10735 10730 10724 10717 10708 10701 10690 10682 10673 10663 10651 10638 10624 10607 10586 10568 10547 10525 10510 10486 10474 10467 10447 10422 10410 10400 10394 10392 10393 10397 10402 10411 10411 10423 10435 10452 10468 10485
10746 10742 10737 10736 10736 10734 10731 10726 10721 10715 10708 10700 10691 10682 10672 10662 10650 10643 10629 10615 10598 10579 10558 10538 10522 10511 10495 10479 10460 10437 10416 10405 10396 10391 10389 10391 10394 10398 10405 10412 10417 10428 10442 10461 10482
10734 10728 10727 10725 10725 10724 10720 10716 10712 10706 10699 10691 10683 10673 10664 10653 10642 10630 10619 10605 10587 10568 10553 10530 10511 10491 10485 10476 10458 10435 10416 10402 10394 10386 10386 10387 10391 10394 10399 10409 10417 10430 10445 10456 10468
10723 10715 10717 10716 10715 10712 10709 10705 10702 10696 10689 10682 10674 10664 10656 10644 10634 10623 10614 10601 10586 10568 10544 10526 10506 10490 10473 10449 10444 10426 10413 10397 10388 10382 10381 10383 10386 10389 10393 10402 10413 10427 10443 10460 10473
10710 10702 10705 10704 10703 10702 10698 10695 10691 10686 10679 10673 10665 10656 10648 10636 10624 10613 10605 10591 10573 10557 10538 10521 10507 10489 10470 10451 10438 10419 10406 10393 10385 10377 10375 10377 10380 10384 10388 10396 10408 10424 10440 10456 10469
10696 10691 10691 10692 10692 10690 10688 10685 10679 10675 10668 10662 10655 10646 10637 10626 10616 10605 10597 10586 10567 10551 10530 10508 10490 10477 10464 10449 10433 10414 10402 10389 10379 10374 10371 10371 10374 10379 10384 10391 10403 10420 10434 10452 10470
10683 10680 10677 10679 10679 10678 10677 10673 10669 10664 10658 10653 10646 10639 10628 10618 10608 10595 10586 10576 10558 10540 10523 10502 10486 10467 10445 10433 10425 10409 10397 10384 10375 10369 10367 10366 10367 10371 10379 10386 10393 10403 10421 10438 10457
10670 10667 10667 10664 10664 10665 10665 10662 10657 10654 10648 10642 10635 10629 10619 10608 10598 10586 10577 10565 10548 10532 10515 10495 10477 10459 10443 10430 10423 10403 10390 10382 10372 10365 10360 10362 10362 10363 10371 10379 10384 10395 10414 10435 10449
10656 10653 10654 10653 10652 10652 10651 10650 10647 10642 10637 10631 10624 10618 10609 10599 10589 10578 10569 10557 10539 10525 10510 10490 10476 10453 10437 10427 10414 10402 10384 10374 10367 10359 10356 10355 10357 10359 10362 10371 10378 10387 10400 10421 10438
10642 10640 10641 10640 10639 10637 10636 10638 10635 10632 10627 10620 10614 10607 10597 10590 10581 10570 10561 10547 10531 10516 10500 10482 10467 10450 10433 10415 10406 10391 10380 10368 10358 10351 10349 10350 10350 10353 10357 10361 10370 10382 10391 10403 10426
10627 10627 10627 10627 10627 10624 10622 10624 10622 10620 10615 10609 10603 10596 10587 10579 10571 10562 10553 10540 10523 10508 10492 10476 10459 10440 10423 10411 10398 10386 10372 10359 10352 10344 10341 10343 10344 10348 10353 10356 10362 10373 10385 10398 10411
10611 10614 10615 10615 10615 10612 10607 10610 10612 10609 10603 10597 10593 10585 10577 10569 10561 10552 10544 10530 10514 10500 10485 10469 10450 10430 10415 10404 10391 10380 10366 10354 10346 10339 10335 10335 10337 10342 10345 10351 10356 10363 10375 10390 10402
10598 10599 10599 10602 10602 10599 10594 10598 10600 10595 10591 10587 10582 10575 10567 10560 10552 10541 10534 10522 10506 10492 10477 10461 10444 10424 10407 10399 10386 10370 10358 10348 10339 10333 10329 10328 10330 10334 10339 10344 10350 10357 10368 10380 10394
10582 10583 10586 10591 10591 10588 10583 10587 10587 10582 10579 10575 10572 10565 10558 10550 10542 10533 10523 10513 10498 10483 10469 10452 10436 10418 10401 10393 10380 10364 10350 10339 10330 10325 10322 10322 10323 10327 10332 10337 10343 10351 10359 10371 10385